Location: Aetna Springs
(38.6535°N, 122.4828°W)
Time: 10:50:35
(UTC+00:00)

Daily predictions for brighter satellites

Satellite Brightness Start Highest point End
(mag) Time Altitude Azimuth Time Altitude Azimuth Time Altitude Azimuth
Centaur D AC-28 4.4 12:12:02 30° S 12:12:51 30° S 12:30:22 10° SE
USA 234 3.2 12:18:02 10° NE 12:23:58 75° NE 12:23:58 75° NE
COSMO-SKYMED 1 4.2 12:48:18 10° SE 12:52:10 33° ENE 12:54:26 20° NNE
Cosmos 2263 Rocket 2.0 12:56:29 81° NW 12:56:29 81° NW 13:01:57 10° NNE
Cosmos 676 Rocket 3.8 13:00:24 83° W 13:00:30 83° WSW 13:05:47 10° SSE
FALCON 9 R/B 3.3 12:58:37 44° WSW 13:01:14 71° S 13:23:58 10° E
Meteor 1-20 Rocket 4.3 12:57:18 10° S 13:03:08 85° E 13:09:00 10° N
GEOS 3 Rocket 4.4 12:59:39 10° ESE 13:04:27 44° NE 13:06:41 28° N
Cosmos 1703 Rocket 3.6 13:05:08 78° ENE 13:05:12 79° E 13:09:35 10° S
Cosmos 1092 Rocket 3.9 13:00:10 13° N 13:05:45 85° E 13:11:53 10° S
PSLV R/B 4.2 13:03:53 10° NNE 13:08:00 67° ESE 13:12:05 10° S
Cosmos 1954 Rocket 3.9 13:07:44 69° WNW 13:08:14 76° WSW 13:13:31 10° S
Cosmos 1420 Rocket 4.4 13:12:34 44° NNW 13:12:34 44° NNW 13:16:22 10° N
STARLINK 1024 4.5 13:16:25 32° ESE 13:16:25 32° ESE 13:18:12 10° SE
STARLINK 1050 3.8 13:15:37 54° ENE 13:15:37 54° ENE 13:18:48 10° ESE
Okean O Rocket 3.3 13:11:40 10° NNE 13:15:41 34° E 13:19:41 10° SSE
STARLINK 1011 4.5 13:17:03 33° ESE 13:17:03 33° ESE 13:18:52 10° SE
STARLINK 1036 4.5 13:17:18 32° ESE 13:17:18 32° ESE 13:19:03 10° SE
STARLINK 1047 4.4 13:17:44 33° ESE 13:17:44 33° ESE 13:19:31 10° SE
Timation 1 Rocket 4.2 13:13:42 21° SW 13:17:44 68° WNW 13:23:41 10° NNE
Cosmos 1869 Rocket 3.4 13:14:06 10° S 13:18:24 89° ESE 13:22:46 10° N
STARLINK 1055 3.6 13:18:45 60° ENE 13:18:45 60° ENE 13:22:04 10° ESE
FENGYUN 3A 4.2 13:15:24 10° NNE 13:20:42 58° E 13:25:59 10° S
STARLINK 1022 3.4 13:21:41 66° NE 13:21:41 66° NE 13:25:08 10° ESE
Cosmos 1461 4.0 13:25:39 31° SW 13:25:39 31° SW 13:28:41 10° S
STARLINK 1042 3.3 13:24:55 72° NE 13:24:57 72° NE 13:28:32 10° SE
Helios 1A Rocket 4.4 13:21:30 10° NNE 13:25:15 37° E 13:28:59 10° SSE
STARLINK 1056 3.1 13:28:07 75° N 13:28:17 77° NE 13:31:51 10° SE
Cosmos 1844 Rocket 4.2 13:23:34 10° S 13:28:37 37° ESE 13:33:41 10° NE
Cosmos 1346 Rocket 2.8 13:25:53 10° S 13:29:44 77° E 13:33:37 10° NNE
Cosmos 1741 Rocket 4.3 13:26:51 15° N 13:31:09 67° ENE 13:36:20 10° SSE
STARLINK 1054 3.1 13:31:19 73° NNW 13:31:37 83° NE 13:35:11 10° SE
METEOR-M 4.2 13:27:42 10° NNE 13:33:04 78° ESE 13:38:25 10° S
STARLINK 1044 3.4 13:34:02 47° SSE 13:34:02 47° SSE 13:36:15 10° SE
BREEZE-M DEB (TANK) 4.4 13:32:14 30° WNW 13:34:43 38° NNW 13:38:23 10° NE
STARLINK 1062 3.1 13:34:23 68° NW 13:34:48 89° NE 13:38:23 10° SE
Cosmos 1340 2.4 13:33:09 10° SSW 13:36:54 75° W 13:40:40 10° N
Meteor 1-18 Rocket 4.1 13:31:34 10° NNW 13:37:08 81° W 13:42:43 10° S
CZ-4B R/B 3.8 13:31:43 10° NNE 13:37:17 60° ESE 13:42:51 10° S
STARLINK 1053 3.1 13:37:45 61° WNW 13:38:19 85° SW 13:41:54 10° SE
SKYMED 2 3.4 13:35:51 10° S 13:40:09 70° WSW 13:43:06 20° NNW
STARLINK 1061 3.1 13:40:43 56° WNW 13:41:23 79° SW 13:44:58 10° SE
Cosmos 1452 Rocket 3.9 13:38:36 22° WSW 13:41:30 40° WNW 13:46:29 10° N
CZ-4C R/B 3.9 13:41:06 25° W 13:42:53 28° WSW 13:49:36 10° SSW
Cosmos 1428 Rocket 4.4 13:37:16 10° N 13:43:37 78° W 13:49:53 10° S
Okean 1-7 3.3 13:43:25 35° NW 13:44:34 43° W 13:48:41 10° SSW
STARLINK 1067 3.1 13:43:55 50° WNW 13:44:43 73° SW 13:48:18 10° SE
Cosmos 332 Rocket 4.5 13:40:01 10° S 13:44:49 57° ESE 13:49:38 10° NNE
PSLV R/B 2.7 13:46:47 62° ENE 13:46:47 62° ENE 13:48:55 10° E
Cosmos 1943 3.3 13:44:39 25° NW 13:47:43 51° WSW 13:53:07 10° S
STARLINK 1058 3.2 13:47:04 45° WNW 13:48:00 68° SW 13:51:33 10° SE
Cosmos 1850 Rocket 4.0 13:45:09 14° NNW 13:49:52 79° WSW 13:55:11 10° SSE
Cosmos 1515 4.2 13:46:20 10° N 13:50:07 60° E 13:53:53 10° SSE
STARLINK 1043 3.3 13:50:15 40° WNW 13:51:18 62° SW 13:54:51 10° SE
MOS 1-B 4.3 13:47:22 10° N 13:53:02 59° WNW 13:58:41 10° SSW
STARLINK 1065 3.4 13:53:23 36° WNW 13:54:33 58° SW 13:58:05 10° SE
STARLINK 1063 3.5 13:56:40 33° WNW 13:57:58 53° SW 14:01:28 10° SSE
NOAA 6 3.9 13:55:49 10° N 14:00:57 81° WNW 14:06:05 10° SSW
STARLINK 1064 3.6 13:59:46 30° WNW 14:01:11 49° SW 14:04:40 10° SSE
Cosmos 2026 Rocket 4.2 13:56:50 10° NNW 14:02:44 47° W 14:08:41 10° SSW
Cosmos 44 3.5 13:59:20 10° SW 14:03:53 43° NW 14:08:15 10° NNE
STARLINK 1041 3.7 14:02:58 27° WNW 14:04:31 45° SW 14:07:57 10° SSE
PAYLOAD B 4.2 14:00:00 10° N 14:05:24 57° WNW 14:10:49 10° SSW
Cosmos 371 Rocket 3.2 14:00:46 10° SSW 14:05:34 69° WNW 14:10:27 10° NNE
USA 234 4.0 14:01:30 10° NNE 14:07:07 32° NNW 14:11:20 16° WNW
STARLINK 1038 3.8 14:06:11 25° WNW 14:07:50 42° SW 14:11:15 10° SSE
Radarsat Rocket 4.5 14:02:38 10° NNE 14:09:03 77° ESE 14:16:19 10° SSW
SJ-7 4.2 14:05:41 10° N 14:09:41 83° WNW 14:13:39 10° SSW
Cosmos 2279 Rocket 4.1 14:04:40 10° SSW 14:10:43 55° W 14:16:49 10° N
STARLINK 1046 3.9 14:09:24 22° WNW 14:11:10 38° SW 14:14:33 10° SSE
USA 116 4.3 14:09:29 10° S 14:13:47 50° W 14:18:36 10° NNW
ALOS 2.7 14:09:42 10° N 14:14:00 37° WNW 14:18:16 10° SW
STARLINK 1039 4.1 14:12:37 21° WNW 14:14:31 36° SW 14:17:50 10° SSE
ATLAS CENTAUR R/B 3.8 14:12:43 10° N 14:15:18 16° NE 14:17:46 10° E
STARLINK 1045 4.1 14:14:25 19° WNW 14:16:23 34° SW 14:19:40 10° SSE
Okean 1 4.4 14:15:40 17° NW 14:17:33 23° W 14:20:42 10° SW
Meteor 1-5 Rocket 4.3 14:13:01 10° SSW 14:18:58 80° W 14:24:51 10° N
CZ-4 R/B 4.5 14:22:46 10° NE 14:25:10 16° E 14:27:35 10° SE
Cosmos 1331 Rocket 4.1 14:21:06 10° SW 14:26:05 50° WNW 14:31:08 10° N
Okean 3 3.7 14:22:04 10° NNW 14:26:06 46° W 14:30:07 10° SSW
Meteor 2-4 Rocket 3.6 14:21:40 10° NNW 14:27:03 62° W 14:32:19 10° S
COSMO-SKYMED 1 3.9 14:25:11 10° SW 14:28:22 20° W 14:31:34 10° NW
SL-24 R/B 4.1 14:24:18 10° S 14:28:44 64° WSW 14:32:56 10° NNW
Cosmos 1666 3.5 14:25:16 10° S 14:28:59 55° E 14:32:43 10° NNE
Cosmos 2278 Rocket 4.5 14:30:23 10° SSE 14:35:13 30° ESE 14:40:04 10° NE
Cosmos 2263 Rocket 3.8 14:38:57 10° WNW 14:41:10 12° NW 14:43:23 10° NNW
Cosmos 1536 2.9 14:38:28 10° SSW 14:42:28 60° W 14:46:30 10° N
Cosmos 1733 Rocket 3.7 14:40:36 10° SW 14:44:27 32° WNW 14:48:21 10° NNW
Cosmos 1655 Rocket 4.3 14:40:01 10° NNW 14:45:52 45° W 14:51:44 10° SSW
Cosmos 44 Rocket 3.3 14:43:56 10° SSW 14:48:50 82° WNW 14:53:40 10° NNE
IRIDIUM 104 4.3 14:46:02 10° N 14:51:15 77° W 14:56:27 10° S
